Volver al catálogo

BIRKELAND

ActivoCienciaSSO
NORAD 55015·PAYLOAD·🇳🇴 Norway

Lanzado Jan 3, 2023 desde Cape Canaveral Space Force Station

Loading…

Próximos Pases (próximas 24 horas)

TLE

ActualizadoSource: Space-Track

Época: Sep 14, 2026, 15:22 UTC

1 55015U 23001G   26257.64039793  .00007504  00000-0  18120-3 0  9996
2 55015  97.3262 325.8856 0007627 133.6838 226.5042 15.41446704206126

Sigue BIRKELAND en tiempo real con AllMySat

Download on the App Store